Theta_e
350 345 345 346 347 345 346 346 350 351 350 351 351 351 346 351 351 348 345 345 348 348
348 343 342 345 347 347 348 349 350 352 351 354 352 354 352 353 346 338 339 343 345 348
348 346 344 345 346 346 346 347 349 351 352 354 353 353 352 348 346 333 331 341 347 349
351 348 346 344 343 345 347 349 350 350 351 351 352 353 351 350 352 343 342 348 347 348
350 351 347 344 343 347 348 347 345 342 347 350 352 349 349 347 348 348 347 346 346 346
349 349 348 347 346 347 347 345 345 338 338 344 350 351 351 349 350 349 349 349 347 346
348 348 348 348 347 347 348 345 342 338 335 344 350 352 352 352 348 350 350 350 348 349
348 350 349 348 348 348 349 347 346 343 345 349 350 351 350 350 350 349 348 347 349 346
349 350 349 349 349 347 348 348 347 347 350 349 353 350 344 349 349 347 346 345 347 348
350 349 347 348 348 348 348 347 347 347 349 347 347 339 341 349 349 346 346 347 344 346
349 350 350 347 350 348 350 349 349 350 350 348 349 336 340 343 343 346 346 347 347 346
350 349 350 347 348 349 349 349 348 351 351 349 347 333 338 337 341 340 340 342 344 347
353 350 348 349 347 350 349 349 350 350 352 346 349 328 329 333 339 337 338 342 345 338
353 352 351 350 350 349 349 350 349 349 350 351 349 337 325 325 339 340 341 343 342 346
Wind_Speed
7 4 5 6 8 7 5 6 8 7 7 7 5 5 5 2 3 2 2 1 3 4
7 8 6 6 6 6 5 6 8 8 8 6 6 6 6 4 4 3 3 4 3 2
9 9 8 7 7 8 5 6 8 8 7 7 7 6 6 4 3 3 3 2 6 4
9 9 9 9 10 5 4 9 10 9 8 7 7 7 6 4 5 6 6 4 3 3
9 9 10 10 10 7 6 7 8 7 6 6 7 6 7 7 6 7 7 5 3 4
10 10 10 10 9 7 8 7 6 6 6 5 7 7 7 7 7 6 6 6 5 6
9 10 10 9 9 10 8 9 7 6 7 7 7 7 7 7 7 6 5 6 6 5
12 10 11 11 8 7 8 10 8 7 8 10 7 7 7 7 7 7 6 4 3 5
13 12 10 9 12 10 7 9 9 8 8 7 7 11 10 8 7 7 7 6 5 5
14 13 11 8 9 9 10 8 10 8 7 8 7 10 9 8 7 7 7 6 6 5
14 13 13 12 10 10 9 11 9 9 8 7 7 13 11 9 6 5 7 7 7 7
13 14 13 14 13 11 11 10 11 9 10 9 7 13 14 8 6 6 6 6 7 7
14 14 15 14 14 10 10 11 9 10 10 11 9 13 14 10 4 6 5 6 8 13
13 14 14 12 11 12 10 9 9 10 8 10 10 11 14 14 6 5 4 4 5 5
Wind_Direction
175 155 163 149 165 188 190 206 192 185 186 191 188 185 194 214 222 193 200 207 177 185
151 147 160 168 175 189 200 227 181 181 178 191 193 185 185 191 198 194 256 269 290 267
157 161 164 182 197 201 208 256 182 175 173 192 185 190 200 177 197 202 245 263 274 262
161 168 163 186 216 202 209 271 185 172 175 191 186 191 187 194 202 228 245 254 220 226
162 168 176 192 213 199 181 194 160 151 153 190 195 195 191 203 219 206 217 240 248 242
168 170 181 191 194 195 169 187 170 154 176 210 207 196 205 203 213 215 216 234 234 242
170 177 183 190 186 195 176 170 180 193 181 216 208 204 212 208 220 231 222 235 240 227
180 183 181 186 188 189 180 176 185 185 207 214 201 208 203 207 208 215 233 245 249 161
181 188 189 187 193 196 182 177 180 192 194 204 213 207 211 208 202 200 203 224 248 220
185 180 187 189 185 183 181 179 190 193 192 204 207 189 199 203 185 194 198 205 220 238
184 183 181 188 188 186 177 184 190 196 198 202 210 185 183 209 201 182 197 200 208 213
180 183 184 193 196 195 190 186 192 194 196 198 212 193 198 178 201 205 215 222 224 214
184 190 196 198 198 194 195 202 192 198 199 199 197 187 191 190 192 200 212 233 237 231
198 194 199 197 193 199 196 197 196 195 197 207 203 188 195 193 191 207 218 233 247 235